| time (UTC) | temp F | wind direction | speed MPH | gust MPH | rain 1hr in | rain 24hr in | rain mn in | humidity % | barometer mb |
| 20260502163603 | 55 | 299 | 6.0 | 10.0 | 0.00 | 0.00 | 0.00 | 56 | 1001.5 |
| 20260502162703 | 56 | 299 | 6.0 | 11.0 | 0.00 | 0.00 | 0.00 | 55 | 1001.6 |
| 20260502161803 | 56 | 296 | 8.0 | 17.0 | 0.00 | 0.00 | 0.00 | 55 | 1001.6 |
| 20260502160903 | 57 | 306 | 8.0 | 15.0 | 0.00 | 0.00 | 0.00 | 53 | 1001.6 |
| 20260502151825 | 58 | 283 | 9.0 | 20.0 | 0.00 | 0.00 | 0.00 | 52 | 1001.7 |
| 20260502150925 | 58 | 303 | 8.0 | 20.0 | 0.00 | 0.00 | 0.00 | 52 | 1001.7 |
| 20260502123604 | 61 | 278 | 11.0 | 20.0 | 0.00 | 0.00 | 0.00 | 43 | 1001.5 |
| 20260502122704 | 61 | 285 | 10.0 | 19.0 | 0.00 | 0.00 | 0.00 | 43 | 1001.4 |
| 20260502121804 | 62 | 296 | 12.0 | 19.0 | 0.00 | 0.00 | 0.00 | 44 | 1001.3 |
| 20260502120904 | 62 | 296 | 11.0 | 23.0 | 0.00 | 0.00 | 0.00 | 43 | 1001.4 |
| 20260502115404 | 62 | 298 | 10.0 | 16.0 | 0.00 | 0.00 | 0.00 | 46 | 1001.3 |
| 20260502114525 | 62 | 297 | 11.0 | 20.0 | 0.00 | 0.00 | 0.00 | 47 | 1001.3 |
| 20260502113604 | 62 | 278 | 8.0 | 15.0 | 0.00 | 0.00 | 0.00 | 49 | 1001.3 |
| 20260502112704 | 62 | 264 | 7.0 | 14.0 | 0.00 | 0.00 | 0.00 | 51 | 1001.4 |
| 20260502111825 | 62 | 276 | 9.0 | 19.0 | 0.00 | 0.00 | 0.00 | 52 | 1001.4 |
| 20260502110904 | 62 | 280 | 9.0 | 16.0 | 0.00 | 0.00 | 0.00 | 50 | 1001.4 |
| 20260502110025 | 62 | 274 | 7.0 | 17.0 | 0.00 | 0.00 | 0.00 | 50 | 1001.4 |
| 20260502105425 | 62 | 273 | 5.0 | 13.0 | 0.00 | 0.00 | 0.00 | 49 | 1001.4 |
| 20260502104504 | 62 | 283 | 7.0 | 16.0 | 0.00 | 0.00 | 0.00 | 48 | 1001.2 |
| 20260502103625 | 64 | 240 | 5.0 | 10.0 | 0.00 | 0.00 | 0.00 | 47 | 1001.2 |
| 20260502102725 | 63 | 266 | 5.0 | 13.0 | 0.00 | 0.00 | 0.00 | 47 | 1001.1 |
| 20260502101804 | 62 | 246 | 4.0 | 12.0 | 0.00 | 0.00 | 0.00 | 47 | 1001.2 |
| 20260502100904 | 63 | 240 | 6.0 | 13.0 | 0.00 | 0.00 | 0.00 | 46 | 1001.2 |
| 20260502090904 | 62 | 255 | 3.0 | 12.0 | 0.00 | 0.00 | 0.00 | 46 | 1001.8 |
| 20260502070904 | 54 | 173 | 6.0 | 12.0 | 0.00 | 0.00 | 0.00 | 58 | 1003.3 |
| 20260502070004 | 54 | 168 | 6.0 | 12.0 | 0.00 | 0.00 | 0.00 | 60 | 1003.5 |
| 20260502065404 | 54 | 167 | 7.0 | 12.0 | 0.00 | 0.00 | 0.00 | 59 | 1003.6 |
| 20260502064504 | 54 | 176 | 5.0 | 11.0 | 0.00 | 0.00 | 0.00 | 61 | 1003.7 |
| 20260502063604 | 53 | 177 | 5.0 | 11.0 | 0.00 | 0.00 | 0.00 | 60 | 1003.9 |
| 20260502062704 | 53 | 169 | 5.0 | 10.0 | 0.00 | 0.00 | 0.00 | 61 | 1003.9 |
| 20260502061825 | 53 | 172 | 5.0 | 10.0 | 0.00 | 0.00 | 0.00 | 61 | 1004.1 |
| 20260502060904 | 53 | 175 | 5.0 | 9.0 | 0.00 | 0.00 | 0.00 | 61 | 1004.2 |
| 20260502060004 | 52 | 178 | 4.0 | 9.0 | 0.00 | 0.00 | 0.00 | 63 | 1004.4 |
| 20260502055404 | 52 | 188 | 4.0 | 10.0 | 0.00 | 0.00 | 0.00 | 63 | 1004.5 |
| 20260502054504 | 51 | 185 | 5.0 | 10.0 | 0.00 | 0.00 | 0.00 | 65 | 1004.7 |
| 20260502053625 | 50 | 169 | 5.0 | 10.0 | 0.00 | 0.00 | 0.00 | 68 | 1004.7 |
| 20260502052704 | 49 | 169 | 4.0 | 8.0 | 0.00 | 0.00 | 0.00 | 70 | 1004.9 |
| 20260502051825 | 48 | 157 | 4.0 | 7.0 | 0.00 | 0.00 | 0.00 | 72 | 1005.0 |
| 20260502050904 | 47 | 169 | 3.0 | 7.0 | 0.00 | 0.00 | 0.00 | 72 | 1004.9 |
| 20260502050004 | 47 | 205 | 1.0 | 2.0 | 0.00 | 0.00 | 0.00 | 73 | 1005.4 |
| 20260502045425 | 46 | 205 | 1.0 | 2.0 | 0.00 | 0.00 | 0.00 | 73 | 1005.4 |
| 20260502044504 | 46 | 205 | 1.0 | 4.0 | 0.00 | 0.00 | 0.00 | 73 | 1005.5 |
| 20260502043604 | 46 | 205 | 0.0 | 2.0 | 0.00 | 0.00 | 0.00 | 74 | 1005.6 |
| 20260502042704 | 45 | 205 | 1.0 | 3.0 | 0.00 | 0.00 | 0.00 | 75 | 1005.6 |
| 20260502041804 | 45 | 209 | 2.0 | 3.0 | 0.00 | 0.00 | 0.00 | 75 | 1005.6 |
| 20260502040904 | 44 | 190 | 1.0 | 4.0 | 0.00 | 0.00 | 0.00 | 76 | 1005.7 |
| 20260502040004 | 44 | 173 | 1.0 | 3.0 | 0.00 | 0.00 | 0.00 | 76 | 1005.7 |
| 20260502035404 | 44 | 175 | 1.0 | 5.0 | 0.00 | 0.00 | 0.00 | 76 | 1005.8 |
| 20260502034504 | 43 | 201 | 0.0 | 5.0 | 0.00 | 0.00 | 0.00 | 77 | 1006.1 |
| 20260502033604 | 43 | 199 | 0.0 | 2.0 | 0.00 | 0.00 | 0.00 | 77 | 1006.1 |
| 20260502032725 | 42 | 199 | 1.0 | 2.0 | 0.00 | 0.00 | 0.00 | 77 | 1006.3 |
| 20260502031804 | 42 | 199 | 0.0 | 3.0 | 0.00 | 0.00 | 0.00 | 78 | 1006.5 |
| 20260502030925 | 41 | 199 | 0.0 | 2.0 | 0.00 | 0.00 | 0.00 | 79 | 1006.6 |
| 20260502030004 | 41 | 199 | 0.0 | 2.0 | 0.00 | 0.00 | 0.00 | 80 | 1006.7 |
| 20260502025404 | 41 | 199 | 1.0 | 2.0 | 0.00 | 0.00 | 0.00 | 79 | 1006.7 |
| 20260502024504 | 41 | 199 | 0.0 | 1.0 | 0.00 | 0.00 | 0.00 | 79 | 1006.8 |
| 20260502023604 | 41 | 199 | 0.0 | 2.0 | 0.00 | 0.00 | 0.00 | 77 | 1006.9 |
| 20260502022704 | 41 | 199 | 0.0 | 2.0 | 0.00 | 0.00 | 0.00 | 77 | 1007.1 |
| 20260502021804 | 42 | 199 | 0.0 | 4.0 | 0.00 | 0.00 | 0.00 | 76 | 1007.3 |
| 20260502020925 | 42 | 213 | 1.0 | 3.0 | 0.00 | 0.00 | 0.00 | 76 | 1007.4 |
| 20260502020004 | 42 | 222 | 0.0 | 3.0 | 0.00 | 0.00 | 0.00 | 75 | 1007.4 |
| 20260502015425 | 42 | 202 | 1.0 | 3.0 | 0.00 | 0.00 | 0.00 | 75 | 1007.5 |
| 20260502014504 | 42 | 198 | 1.0 | 3.0 | 0.00 | 0.00 | 0.00 | 75 | 1007.5 |
| 20260502013604 | 42 | 222 | 1.0 | 4.0 | 0.00 | 0.00 | 0.00 | 73 | 1007.6 |
| 20260502012725 | 43 | 0 | 0.0 | 0.0 | 0.00 | 0.00 | 0.00 | 73 | 1007.6 |
| 20260502011804 | 43 | 0 | 0.0 | 0.0 | 0.00 | 0.00 | 0.00 | 72 | 1007.8 |
| 20260502010904 | 43 | 0 | 0.0 | 0.0 | 0.00 | 0.00 | 0.00 | 72 | 1007.7 |
| 20260502010004 | 43 | 242 | 0.0 | 3.0 | 0.00 | 0.00 | 0.00 | 72 | 1007.9 |
| 20260502005425 | 43 | 242 | 0.0 | 3.0 | 0.00 | 0.00 | 0.00 | 71 | 1007.9 |
| 20260502004504 | 44 | 242 | 2.0 | 4.0 | 0.00 | 0.00 | 0.00 | 72 | 1008.0 |
| 20260502003604 | 43 | 242 | 2.0 | 4.0 | 0.00 | 0.00 | 0.00 | 72 | 1007.9 |
| 20260502002704 | 43 | 242 | 1.0 | 2.0 | 0.00 | 0.00 | 0.00 | 72 | 1008.0 |
| 20260502001804 | 43 | 242 | 0.0 | 2.0 | 0.00 | 0.00 | 0.00 | 71 | 1008.1 |
| 20260502000904 | 43 | 242 | 1.0 | 2.0 | 0.00 | 0.00 | 0.00 | 71 | 1008.2 |
| 20260502000004 | 43 | 230 | 1.0 | 4.0 | 0.00 | 0.00 | 0.00 | 71 | 1008.1 |
| 20260501235404 | 43 | 223 | 1.0 | 4.0 | 0.00 | 0.00 | 0.00 | 71 | 1008.2 |
| 20260501234504 | 44 | 244 | 1.0 | 3.0 | 0.00 | 0.00 | 0.00 | 71 | 1008.3 |
| 20260501233604 | 44 | 284 | 1.0 | 4.0 | 0.00 | 0.00 | 0.00 | 71 | 1008.4 |
| 20260501232704 | 44 | 292 | 1.0 | 5.0 | 0.00 | 0.00 | 0.00 | 71 | 1008.5 |
| 20260501231804 | 44 | 263 | 2.0 | 6.0 | 0.00 | 0.00 | 0.00 | 70 | 1008.7 |
| 20260501230925 | 44 | 269 | 1.0 | 4.0 | 0.00 | 0.00 | 0.00 | 70 | 1008.7 |
| 20260501230004 | 44 | 267 | 1.0 | 5.0 | 0.00 | 0.00 | 0.00 | 70 | 1008.6 |
| 20260501225403 | 44 | 264 | 2.0 | 7.0 | 0.00 | 0.00 | 0.00 | 69 | 1008.7 |
| 20260501224504 | 44 | 275 | 3.0 | 8.0 | 0.00 | 0.00 | 0.00 | 68 | 1008.7 |
| 20260501223604 | 44 | 277 | 4.0 | 10.0 | 0.00 | 0.00 | 0.00 | 68 | 1008.7 |
| 20260501222704 | 45 | 281 | 1.0 | 6.0 | 0.00 | 0.00 | 0.00 | 68 | 1008.8 |
| 20260501221825 | 45 | 290 | 3.0 | 9.0 | 0.00 | 0.00 | 0.00 | 68 | 1008.6 |
| 20260501220924 | 45 | 281 | 3.0 | 9.0 | 0.00 | 0.00 | 0.00 | 69 | 1008.9 |
| 20260501220025 | 44 | 278 | 3.0 | 9.0 | 0.00 | 0.00 | 0.00 | 70 | 1008.9 |
| 20260501215425 | 43 | 272 | 2.0 | 9.0 | 0.00 | 0.00 | 0.00 | 71 | 1008.9 |
| 20260501214504 | 44 | 282 | 2.0 | 4.0 | 0.00 | 0.00 | 0.00 | 70 | 1008.9 |
| 20260501213604 | 44 | 312 | 1.0 | 4.0 | 0.00 | 0.00 | 0.00 | 71 | 1009.0 |
| 20260501212704 | 44 | 289 | 2.0 | 4.0 | 0.00 | 0.00 | 0.00 | 70 | 1009.1 |
| 20260501211804 | 44 | 277 | 2.0 | 6.0 | 0.00 | 0.00 | 0.00 | 70 | 1009.1 |
| 20260501210904 | 44 | 273 | 1.0 | 6.0 | 0.00 | 0.00 | 0.00 | 70 | 1009.1 |
| 20260501210005 | 45 | 258 | 2.0 | 6.0 | 0.00 | 0.00 | 0.00 | 69 | 1009.1 |
| 20260501205404 | 46 | 271 | 1.0 | 7.0 | 0.00 | 0.00 | 0.00 | 68 | 1009.2 |
| 20260501204525 | 46 | 282 | 2.0 | 7.0 | 0.00 | 0.00 | 0.00 | 67 | 1009.4 |
| 20260501203625 | 47 | 283 | 3.0 | 9.0 | 0.00 | 0.00 | 0.00 | 67 | 1009.5 |
| 20260501202704 | 47 | 283 | 3.0 | 10.0 | 0.00 | 0.00 | 0.00 | 67 | 1009.6 |
| 20260501201825 | 47 | 289 | 2.0 | 6.0 | 0.00 | 0.00 | 0.00 | 67 | 1009.6 |
| 20260501200903 | 47 | 279 | 3.0 | 10.0 | 0.00 | 0.00 | 0.00 | 66 | 1009.7 |
| 20260501200004 | 47 | 271 | 2.0 | 8.0 | 0.00 | 0.00 | 0.00 | 67 | 1009.8 |
| 20260501195404 | 47 | 278 | 2.0 | 8.0 | 0.00 | 0.00 | 0.00 | 67 | 1009.9 |
| 20260501194525 | 47 | 237 | 1.0 | 4.0 | 0.00 | 0.00 | 0.00 | 65 | 1009.8 |
| 20260501193603 | 48 | 246 | 2.0 | 5.0 | 0.00 | 0.00 | 0.00 | 65 | 1009.8 |
| 20260501192704 | 49 | 259 | 2.0 | 8.0 | 0.00 | 0.00 | 0.00 | 63 | 1009.8 |
| 20260501191803 | 50 | 254 | 2.0 | 6.0 | 0.00 | 0.00 | 0.00 | 62 | 1010.0 |
| 20260501190925 | 51 | 274 | 3.0 | 8.0 | 0.00 | 0.00 | 0.00 | 61 | 1009.9 |
| 20260501190004 | 51 | 269 | 4.0 | 10.0 | 0.00 | 0.00 | 0.00 | 60 | 1009.8 |
| 20260501185403 | 52 | 272 | 5.0 | 10.0 | 0.00 | 0.00 | 0.00 | 59 | 1009.8 |
| 20260501184504 | 52 | 274 | 4.0 | 11.0 | 0.00 | 0.00 | 0.00 | 59 | 1009.9 |
| 20260501183604 | 53 | 272 | 3.0 | 9.0 | 0.00 | 0.00 | 0.00 | 58 | 1010.0 |
| 20260501182725 | 53 | 276 | 4.0 | 9.0 | 0.00 | 0.00 | 0.00 | 57 | 1009.9 |
| 20260501181804 | 54 | 275 | 4.0 | 12.0 | 0.00 | 0.00 | 0.00 | 57 | 1009.9 |
| 20260501180904 | 54 | 279 | 3.0 | 10.0 | 0.00 | 0.00 | 0.00 | 57 | 1009.8 |
| 20260501180004 | 55 | 271 | 4.0 | 11.0 | 0.00 | 0.00 | 0.00 | 55 | 1009.9 |